Regional Weather Roundup
Issued by NWS Binghamton, NY

Home | Current Version | Previous Version | Text Only | Print | Product List | Glossary On
Versions: 1 2 3 4 5 6 7 8 9 10 11 12 13 14 15 16 17 18 19 20 21 22 23 24 25 26 27 28
000
ASUS41 KBGM 201110
RWRBGM

REGIONAL WEATHER ROUNDUP
NATIONAL WEATHER SERVICE BINGHAMTON NY
700 AM EDT WED SEP 20 2017

Note: "fair" indicates few or no clouds below 12,000 feet with no
significant weather and/or obstructions to visibility.

* = Station(s) that does not report precipitation, such as rain,
snow, etc, also no thunder or fog.

NYZ009-015>018-022>025-036-037-044>046-055>057-062-201200
...Central New York...

CITY           SKY/WX    TMP DP  RH WIND       PRES   REMARKS
Binghamton     CLEAR     58  56  93 N3        30.03R
Cortland       FOG       52  52 100 CALM      30.04R VSB 1/4
Dansville      PTCLDY    56  55  97 SE6       30.04R
Elmira         FOG       58  58 100 W3        30.03R VSB 1/2
Seneca Falls   FOG       61  61 100 CALM      30.02S VSB 1
Ithaca         CLEAR     53  53 100 CALM      30.04R
Hamilton       CLOUDY    52  50  93 CALM      30.04R VSB 1/4
Hornell        FOG       55  55 100 CALM      30.09R VSB 1/4
Monticello     PTCLDY    62  59  90 W5        29.98R
Oneonta        MOCLDY    57 N/A N/A CALM      30.03R
Penn Yan       FOG       61  59  93 SW5       30.03R VSB 1/4
Rome           CLEAR     56  54  93 CALM      30.03R
Sidney         FOG       55  55 100 CALM      30.02S VSB 1/4
Syracuse       PTCLDY    57  57 100 CALM      30.00R
$$

PAZ038>040-043-044-047-048-072-201200
...Northeast Pennsylvania...

CITY           SKY/WX    TMP DP  RH WIND       PRES   REMARKS
Hazleton         N/A     61  57  88 NW6       30.02S
Scranton       CLEAR     58  57  97 SE3       29.99R
$$
&&
KEY
WCI = Wind Chill Index
VSB = Visibility
HX  = Heat Index
$$




USA.gov is the U.S. government's official web portal to all federal, state and local government web resources and services.